Location: Caltech
(34.1382°N, 118.1253°W)
Time: 14:30:06
(UTC-07:00)

Cosmos 2219 - Visible Passes

Search period start: 24 May 2016 00:00
Search period end: 03 June 2016 00:00
Orbit: 832 x 861 km, 71.1° (Epoch: 24 May)

Date Brightness Start Highest point End Pass type
(mag) Time Alt. Az. Time Alt. Az. Time Alt. Az.
24 May 5.6 03:25:50 10° SE 03:28:43 14° E 03:31:38 10° ENE visible
24 May 3.4 05:06:34 10° SSW 05:12:13 63° WNW 05:17:56 10° NNE visible
25 May 5.6 03:12:32 10° SE 03:15:17 14° E 03:18:04 10° ENE visible
25 May 3.3 04:53:06 10° SSW 04:58:46 65° WNW 05:04:29 10° NNE visible
26 May 5.6 02:59:14 10° SE 03:01:51 13° E 03:04:30 10° ENE visible
26 May 3.3 04:40:18 13° SSW 04:45:18 67° WNW 04:51:03 10° NNE visible
27 May 5.6 02:45:57 10° ESE 02:48:26 13° E 02:50:55 10° ENE visible
27 May 3.3 04:27:35 18° SSW 04:31:52 68° WNW 04:37:36 10° NNE visible
28 May 5.6 02:32:52 10° ESE 02:34:59 13° E 02:37:20 10° ENE visible
28 May 3.2 04:14:49 23° SSW 04:18:24 70° WNW 04:24:10 10° NNE visible
29 May 5.6 02:20:03 11° ESE 02:21:34 12° E 02:23:43 10° ENE visible
29 May 3.2 04:01:59 29° SSW 04:04:58 72° WNW 04:10:43 10° NNE visible
30 May 5.6 02:07:10 11° ESE 02:08:08 12° E 02:10:06 10° ENE visible
30 May 3.2 03:49:06 36° SW 03:51:30 74° WNW 03:57:16 10° NNE visible
31 May 5.6 01:54:15 11° ESE 01:54:42 11° E 01:56:27 10° ENE visible
31 May 3.2 03:36:11 44° SW 03:38:03 76° WNW 03:43:50 10° NNE visible
01 Jun 5.6 01:41:18 11° E 01:41:18 11° E 01:42:46 10° E visible
01 Jun 3.1 03:23:13 53° SW 03:24:36 78° WNW 03:30:23 10° NNE visible
02 Jun 5.7 01:28:17 11° E 01:28:17 11° E 01:29:01 10° E visible
02 Jun 3.1 03:10:12 62° SW 03:11:10 80° WNW 03:16:56 10° NNE visible
02 Jun 5.4 04:55:31 10° WNW 04:56:13 10° NW 04:56:54 10° NW visible
